TimeCST,TemperatureF,Dew PointF,Humidity,Sea Level PressureIn,VisibilityMPH,Wind Direction,Wind SpeedMPH,Gust SpeedMPH,PrecipitationIn,Events,Conditions,WindDirDegrees,DateUTC
12:15 AM,51.8,51.8,100,29.98,7.0,Calm,Calm,-,N/A,,Overcast,0,2013-01-01 06:15:00
12:35 AM,51.8,51.8,100,29.98,4.0,Calm,Calm,-,N/A,,Overcast,0,2013-01-01 06:35:00
12:55 AM,51.8,51.8,100,29.98,1.8,Calm,Calm,-,N/A,,Overcast,0,2013-01-01 06:55:00
1:15 AM,51.8,51.8,100,29.98,7.0,Calm,Calm,-,N/A,,Overcast,0,2013-01-01 07:15:00
1:35 AM,51.8,50.0,94,30.00,10.0,North,9.2,-,N/A,,Overcast,10,2013-01-01 07:35:00
1:55 AM,50.0,48.2,94,30.01,2.5,NNE,12.7,20.7,0.01,Rain,Light Rain,20,2013-01-01 07:55:00
2:15 AM,50.0,48.2,94,30.01,3.0,NE,10.4,-,N/A,,Overcast,40,2013-01-01 08:15:00
2:35 AM,50.0,50.0,100,30.03,5.0,NNE,9.2,-,N/A,,Overcast,20,2013-01-01 08:35:00
2:55 AM,46.4,46.4,100,30.02,2.5,NNE,8.1,-,N/A,,Overcast,20,2013-01-01 08:55:00
3:15 AM,46.4,46.4,100,30.04,3.0,NNE,9.2,-,0.01,,Unknown,20,2013-01-01 09:15:00
3:35 AM,46.4,46.4,100,30.03,3.0,NNE,8.1,-,0.02,,Overcast,20,2013-01-01 09:35:00
3:55 AM,46.4,46.4,100,30.05,4.0,North,5.8,-,0.02,,Overcast,360,2013-01-01 09:55:00
4:15 AM,46.4,46.4,100,30.07,4.0,North,4.6,-,0.01,,Unknown,360,2013-01-01 10:15:00
4:35 AM,46.4,46.4,100,30.05,3.0,NNE,6.9,-,0.01,,Overcast,30,2013-01-01 10:35:00
4:55 AM,46.4,46.4,100,30.07,4.0,North,8.1,-,0.01,,Overcast,10,2013-01-01 10:55:00
5:15 AM,46.4,46.4,100,30.07,2.5,NNE,6.9,-,N/A,,Overcast,20,2013-01-01 11:15:00
5:35 AM,46.4,46.4,100,30.08,2.0,North,6.9,-,0.01,,Overcast,10,2013-01-01 11:35:00
5:55 AM,46.4,46.4,100,30.08,2.5,NNE,6.9,-,0.01,,Overcast,30,2013-01-01 11:55:00
6:15 AM,44.6,42.8,93,30.08,2.5,NNE,9.2,-,N/A,,Overcast,30,2013-01-01 12:15:00
6:35 AM,42.8,42.8,100,30.09,5.0,North,8.1,-,N/A,,Overcast,10,2013-01-01 12:35:00
6:55 AM,42.8,42.8,100,30.09,7.0,North,4.6,-,N/A,,Overcast,360,2013-01-01 12:55:00
7:15 AM,42.8,41.0,93,30.10,7.0,NNE,5.8,-,N/A,,Overcast,30,2013-01-01 13:15:00
7:35 AM,42.8,41.0,93,30.12,5.0,NNE,6.9,-,N/A,,Overcast,20,2013-01-01 13:35:00
7:55 AM,42.8,41.0,93,30.12,5.0,NNE,5.8,-,N/A,,Overcast,20,2013-01-01 13:55:00
8:15 AM,42.8,41.0,93,30.13,5.0,North,5.8,-,N/A,,Overcast,10,2013-01-01 14:15:00
8:35 AM,42.8,41.0,93,30.15,5.0,North,4.6,-,N/A,,Overcast,360,2013-01-01 14:35:00
8:55 AM,42.8,41.0,93,30.16,7.0,North,6.9,-,N/A,,Overcast,360,2013-01-01 14:55:00
9:15 AM,42.8,41.0,93,30.17,7.0,North,9.2,-,N/A,,Overcast,360,2013-01-01 15:15:00
9:35 AM,41.0,37.4,87,30.18,4.0,NNW,10.4,18.4,N/A,,Overcast,340,2013-01-01 15:35:00
9:55 AM,41.0,37.4,87,30.19,4.0,NNW,11.5,-,N/A,,Overcast,330,2013-01-01 15:55:00
10:15 AM,39.2,37.4,93,30.21,7.0,NNW,9.2,-,N/A,,Overcast,340,2013-01-01 16:15:00
10:35 AM,39.2,37.4,93,30.21,10.0,NNW,11.5,17.3,N/A,,Overcast,340,2013-01-01 16:35:00
10:55 AM,39.2,35.6,87,30.21,10.0,NNW,8.1,-,N/A,,Overcast,340,2013-01-01 16:55:00
11:15 AM,39.2,35.6,87,30.21,10.0,NNW,9.2,18.4,N/A,,Overcast,340,2013-01-01 17:15:00
11:35 AM,41.0,35.6,81,30.21,10.0,North,12.7,18.4,N/A,,Mostly Cloudy,350,2013-01-01 17:35:00
11:55 AM,42.8,37.4,81,30.19,10.0,NNW,9.2,-,N/A,,Scattered Clouds,330,2013-01-01 17:55:00
12:15 PM,42.8,35.6,76,30.19,10.0,NNW,9.2,-,N/A,,Scattered Clouds,340,2013-01-01 18:15:00
12:35 PM,42.8,35.6,76,30.19,10.0,NNW,9.2,-,N/A,,Mostly Cloudy,340,2013-01-01 18:35:00
12:55 PM,44.6,35.6,71,30.17,10.0,North,8.1,-,N/A,,Mostly Cloudy,350,2013-01-01 18:55:00
1:15 PM,46.4,37.4,71,30.17,10.0,NW,8.1,-,N/A,,Mostly Cloudy,320,2013-01-01 19:15:00
1:35 PM,46.4,35.6,66,30.16,10.0,NNW,8.1,-,N/A,,Scattered Clouds,330,2013-01-01 19:35:00
1:55 PM,46.4,35.6,66,30.15,10.0,NNW,8.1,-,N/A,,Clear,340,2013-01-01 19:55:00
2:15 PM,50.0,37.4,62,30.14,10.0,NNW,5.8,-,N/A,,Clear,340,2013-01-01 20:15:00
2:35 PM,50.0,37.4,62,30.14,10.0,North,10.4,-,N/A,,Clear,10,2013-01-01 20:35:00
2:55 PM,50.0,37.4,62,30.14,10.0,North,9.2,-,N/A,,Clear,360,2013-01-01 20:55:00
3:15 PM,50.0,35.6,58,30.15,10.0,North,10.4,-,N/A,,Clear,360,2013-01-01 21:15:00
3:35 PM,50.0,35.6,58,30.16,10.0,NNW,6.9,-,N/A,,Clear,340,2013-01-01 21:35:00
3:55 PM,50.0,35.6,58,30.15,10.0,North,9.2,-,N/A,,Clear,350,2013-01-01 21:55:00
4:15 PM,46.4,33.8,62,30.17,10.0,North,8.1,-,N/A,,Clear,350,2013-01-01 22:15:00
4:35 PM,46.4,33.8,62,30.18,10.0,NNW,8.1,-,N/A,,Clear,340,2013-01-01 22:35:00
4:55 PM,44.6,33.8,66,30.18,10.0,NNW,8.1,-,N/A,,Clear,340,2013-01-01 22:55:00
5:15 PM,42.8,32.0,66,30.19,10.0,North,6.9,-,N/A,,Clear,350,2013-01-01 23:15:00
5:35 PM,42.8,32.0,66,30.20,10.0,North,6.9,-,N/A,,Clear,350,2013-01-01 23:35:00
5:55 PM,42.8,32.0,66,30.19,10.0,North,3.5,-,N/A,,Clear,350,2013-01-01 23:55:00
6:15 PM,41.0,32.0,70,30.20,10.0,Calm,Calm,-,N/A,,Clear,0,2013-01-02 00:15:00
6:35 PM,41.0,32.0,70,30.20,10.0,North,3.5,-,N/A,,Clear,350,2013-01-02 00:35:00
6:55 PM,41.0,32.0,70,30.20,10.0,North,3.5,-,N/A,,Clear,350,2013-01-02 00:55:00
7:15 PM,39.2,32.0,75,30.22,10.0,North,4.6,-,N/A,,Clear,350,2013-01-02 01:15:00
7:35 PM,39.2,32.0,75,30.22,10.0,North,4.6,-,N/A,,Clear,350,2013-01-02 01:35:00
7:55 PM,39.2,33.8,81,30.22,10.0,North,4.6,-,N/A,,Clear,350,2013-01-02 01:55:00
8:15 PM,37.4,32.0,81,30.23,10.0,North,3.5,-,N/A,,Clear,350,2013-01-02 02:15:00
8:35 PM,37.4,32.0,81,30.23,10.0,North,4.6,-,N/A,,Clear,360,2013-01-02 02:35:00
8:55 PM,37.4,32.0,81,30.24,10.0,North,4.6,-,N/A,,Clear,360,2013-01-02 02:55:00
9:15 PM,37.4,32.0,81,30.24,10.0,NNW,3.5,-,N/A,,Clear,340,2013-01-02 03:15:00
9:35 PM,37.4,32.0,81,30.25,10.0,North,5.8,-,N/A,,Clear,350,2013-01-02 03:35:00
9:55 PM,37.4,32.0,81,30.25,10.0,NNW,6.9,-,N/A,,Clear,340,2013-01-02 03:55:00
10:15 PM,37.4,32.0,81,30.25,10.0,North,6.9,-,N/A,,Clear,350,2013-01-02 04:15:00
10:35 PM,35.6,32.0,87,30.25,10.0,North,6.9,-,N/A,,Clear,350,2013-01-02 04:35:00
10:55 PM,33.8,30.2,87,30.25,10.0,North,11.5,16.1,N/A,,Clear,360,2013-01-02 04:55:00
11:15 PM,33.8,30.2,87,30.26,10.0,North,11.5,-,N/A,,Clear,350,2013-01-02 05:15:00
11:35 PM,33.8,30.2,87,30.25,10.0,North,9.2,-,N/A,,Clear,360,2013-01-02 05:35:00
11:55 PM,32.0,30.2,93,30.26,10.0,North,8.1,-,N/A,,Clear,360,2013-01-02 05:55:00